Theta_e
310 310 310 310 310 310 311 311 311 312 314 315 315 315 317 317 314 305 299 304 312 322 322 310 309 308 308 305 305 305 300 298 297 297 299 303 301 306 318 327 328 331 333 336 341
309 309 310 309 310 311 311 311 312 313 314 314 315 315 316 317 305 301 310 320 321 323 307 306 304 306 305 303 305 302 299 298 299 300 300 301 302 303 308 320 320 321 335 338 336
309 309 309 310 310 310 311 311 312 313 314 314 315 315 316 316 301 298 317 319 319 315 307 307 307 304 301 304 301 301 299 299 300 301 301 301 302 307 306 306 311 318 321 332 334
309 310 309 310 310 310 311 312 312 313 313 314 315 316 317 308 293 302 316 316 317 306 306 306 305 301 300 299 301 297 300 300 299 299 300 299 301 304 305 305 309 324 332 331 332
310 310 310 310 310 311 312 312 312 312 313 314 315 317 307 299 296 304 316 311 304 304 303 303 302 301 298 299 300 299 299 298 298 299 299 301 299 301 301 305 307 311 308 314 329
310 310 310 310 310 311 311 311 311 312 313 314 316 315 303 294 303 306 304 303 303 303 303 305 302 303 300 299 299 299 298 296 298 297 297 299 300 299 301 304 306 304 302 303 306
310 310 310 310 311 310 311 311 311 311 313 314 315 305 300 296 304 306 304 302 302 302 302 303 303 302 301 298 298 298 295 295 295 296 296 297 297 296 300 302 304 304 302 301 301
309 310 310 309 310 310 310 310 310 311 313 313 313 305 295 304 307 303 305 303 304 304 303 302 303 301 299 299 296 295 295 293 292 295 295 296 294 297 300 300 300 301 302 302 300
309 309 309 308 309 309 310 310 311 312 314 312 305 302 294 309 302 304 303 299 301 303 303 302 301 296 297 295 292 292 291 290 289 294 293 295 293 296 299 299 299 300 301 301 303
308 308 308 309 309 309 308 310 307 305 305 302 302 299 298 296 302 304 304 302 298 299 299 298 298 295 294 292 287 287 287 288 288 290 291 292 293 295 297 297 298 299 300 300 301
309 309 309 309 309 307 308 307 302 299 300 295 295 295 296 300 305 302 303 300 300 297 292 295 292 288 289 290 289 288 287 286 288 291 290 290 292 292 295 296 296 298 298 299 300
310 310 310 310 309 306 312 304 302 302 294 298 297 297 300 303 297 300 304 296 296 290 294 292 288 290 291 290 289 288 286 286 288 290 289 289 290 293 294 294 295 295 297 297 299
310 310 309 308 308 311 308 305 309 306 296 294 297 296 296 300 295 296 300 296 293 291 291 289 289 291 290 289 287 288 286 285 285 289 290 288 288 292 293 293 294 295 296 297 297
309 308 308 308 307 309 305 310 313 306 293 290 293 296 299 298 293 300 301 296 293 289 291 289 291 289 289 287 289 284 288 287 286 286 284 288 282 289 291 290 292 292 293 295 297
309 308 307 311 310 307 308 313 313 310 282 290 293 302 300 295 295 296 301 298 291 290 291 286 288 288 287 286 289 286 289 288 287 286 285 286 282 287 289 287 289 291 292 293 295
309 309 308 308 312 308 311 312 310 293 278 288 294 292 293 295 294 295 296 298 296 292 292 290 293 289 288 289 288 290 288 288 287 286 279 285 283 286 286 284 287 290 291 292 293
307 307 309 312 307 312 311 307 291 285 290 287 289 292 291 290 291 291 290 290 288 285 285 287 287 289 289 287 289 288 286 281 278 278 278 283 281 284 284 285 286 287 289 292 293
305 308 305 309 313 311 310 297 285 285 287 292 291 291 288 290 290 290 288 287 291 289 288 284 281 285 287 284 282 284 284 280 272 276 279 283 278 284 285 287 288 289 290 291 292
305 311 309 310 310 310 302 287 286 287 290 289 290 287 287 289 289 288 288 287 289 290 285 284 281 285 285 286 286 283 284 285 279 282 278 281 283 285 286 285 287 287 288 289 290
310 309 304 309 310 308 295 286 289 292 292 292 286 288 285 287 286 287 286 289 288 290 292 287 281 284 283 285 285 285 286 280 282 273 273 279 280 283 279 281 284 285 286 288 290
309 303 307 310 310 300 289 289 291 294 294 291 288 287 287 286 287 286 286 288 290 290 291 289 285 282 283 280 277 283 282 281 281 280 275 275 279 280 281 284 284 286 287 287 288
309 296 307 309 297 297 292 292 293 293 295 293 293 290 288 287 286 286 285 287 291 290 286 289 286 282 273 282 284 283 280 279 276 275 279 277 277 285 285 286 286 286 286 288 289
299 299 309 307 290 292 293 291 293 291 292 291 290 291 291 288 284 286 287 292 292 288 287 290 284 280 278 281 282 277 281 281 281 279 275 274 278 285 286 285 285 286 287 287 287
303 293 300 300 299 294 291 290 289 294 293 293 291 292 289 287 289 286 286 290 292 289 287 287 283 280 278 278 281 277 279 279 279 276 276 277 277 281 283 283 285 285 286 286 286
302 296 296 293 294 294 293 291 289 288 293 294 291 290 289 286 286 285 287 288 290 288 288 287 280 277 276 279 281 279 278 278 276 277 274 276 277 281 283 284 285 286 285 285 285
300 297 298 295 293 293 292 290 289 289 290 289 289 291 291 287 288 285 287 288 286 289 287 286 281 278 276 280 281 278 281 281 280 279 279 279 279 285 287 287 286 285 285 284 284
303 301 301 289 292 292 292 291 290 292 292 293 292 291 289 290 293 293 294 292 291 289 286 284 282 279 278 278 280 277 280 280 280 281 280 276 282 285 285 285 285 286 285 284 285
Wind_Speed
7 6 5 5 5 5 6 7 8 10 10 11 11 11 12 13 15 9 15 10 10 19 13 11 7 2 3 3 1 3 7 7 3 4 9 6 4 7 4 2 3 5 9 7 18
7 6 6 5 6 6 7 7 8 9 10 10 10 10 9 10 4 15 4 12 12 11 8 9 5 4 4 3 2 7 8 4 5 5 3 3 6 6 4 3 10 12 12 10 17
7 7 6 6 6 7 8 7 8 9 10 10 9 9 7 7 4 9 17 18 14 11 6 6 5 3 3 2 2 1 5 5 8 7 4 4 10 15 8 8 18 19 10 7 12
7 7 6 7 6 6 6 6 7 8 8 8 8 8 8 6 1 11 16 16 13 8 5 4 3 2 2 3 3 5 5 3 5 4 3 3 1 13 18 10 14 23 6 9 11
7 8 7 6 7 7 6 6 6 6 6 7 8 9 5 6 6 12 14 9 4 3 6 4 3 1 3 3 5 6 7 8 4 0 9 7 7 9 19 17 15 16 22 17 3
8 7 7 7 8 7 6 5 5 6 6 7 7 10 3 8 10 13 13 8 8 4 7 8 5 4 5 4 3 4 8 8 6 4 8 4 8 1 16 15 14 17 18 17 17
7 6 7 7 7 7 6 5 6 6 6 7 7 4 19 10 8 10 7 9 7 5 7 8 4 2 0 6 3 6 7 6 11 7 4 5 6 11 14 12 13 15 15 14 17
7 7 7 7 7 8 8 8 8 7 6 5 6 1 8 8 10 14 11 9 10 8 8 6 4 8 5 3 4 5 6 10 9 8 3 5 9 9 13 12 14 14 15 14 15
7 7 7 7 8 9 8 6 3 3 2 4 2 1 6 7 16 13 11 5 5 9 10 4 6 5 4 6 7 4 6 4 6 10 5 5 10 8 10 10 12 13 14 14 14
6 6 6 7 8 8 5 2 2 7 2 2 4 5 7 10 11 14 7 6 3 1 3 6 3 5 7 5 5 3 5 4 1 8 5 2 6 5 7 9 11 12 13 14 15
6 7 7 8 9 5 3 4 4 6 14 12 8 12 8 4 7 18 11 4 1 4 4 9 9 10 11 10 7 3 2 0 4 6 7 1 1 3 5 7 10 12 13 14 15
7 8 9 9 7 3 3 4 4 4 11 8 7 11 8 6 9 21 17 4 9 7 6 9 12 7 6 6 5 3 1 3 2 3 7 3 7 4 3 8 10 12 13 14 15
8 8 8 6 2 6 8 5 4 3 5 7 6 8 6 9 12 16 15 4 10 13 12 11 8 3 4 6 3 6 6 4 6 9 6 7 14 12 7 3 5 10 12 13 15
8 9 8 4 2 1 4 4 3 2 4 5 4 7 8 1 6 13 10 5 4 6 8 10 5 3 2 7 9 3 5 5 7 8 6 1 5 12 9 5 6 11 14 15 16
8 6 10 3 6 2 4 5 2 5 2 4 6 3 9 8 5 15 9 13 12 5 7 6 6 6 6 6 7 7 8 8 8 10 9 14 8 5 7 7 9 11 14 16 17
9 6 1 3 4 4 5 3 4 3 4 3 3 2 2 9 7 4 8 5 1 10 13 9 4 8 9 4 2 10 8 11 8 9 11 13 10 4 5 6 10 12 14 15 18
8 14 6 1 4 6 4 4 1 5 1 3 4 2 4 6 6 6 9 13 7 3 3 6 9 4 11 6 4 11 8 5 6 7 6 5 7 5 7 7 10 13 15 15 15
7 4 5 6 5 4 3 2 6 0 3 1 1 2 3 6 4 6 1 6 9 6 2 4 7 10 10 7 8 6 7 5 6 5 6 9 9 8 5 7 10 13 13 14 15
3 2 4 8 7 3 3 6 3 2 0 2 3 3 2 2 4 1 5 5 6 10 7 5 6 4 8 5 8 5 1 3 6 11 9 10 7 9 3 12 14 14 15 15 16
0 1 6 10 7 3 4 4 3 1 2 3 2 2 3 4 2 3 4 3 3 4 4 3 2 3 4 2 6 5 5 4 5 6 9 7 8 0 10 14 16 16 13 16 16
1 1 5 6 5 3 4 5 4 2 2 4 0 1 2 2 4 3 4 4 4 4 2 1 3 5 6 5 5 3 3 3 4 7 8 11 3 2 7 11 13 14 10 13 16
0 2 6 5 1 2 4 4 1 4 2 2 2 2 1 1 1 1 3 3 5 3 0 1 3 1 3 3 3 3 4 3 5 2 4 6 6 3 9 12 12 16 13 13 15
3 3 2 4 4 4 6 5 2 2 2 1 2 2 0 1 1 2 0 2 3 3 3 1 2 4 9 7 5 3 4 6 9 8 12 7 1 4 7 12 11 12 13 13 14
2 2 4 4 3 8 8 4 4 2 3 2 4 2 3 2 1 1 1 2 1 3 4 4 2 4 5 2 2 4 3 4 6 6 8 9 13 13 13 13 13 13 14 14 13
3 2 3 3 4 5 3 3 4 2 1 1 3 2 2 2 1 1 1 3 3 2 2 3 3 1 2 3 5 5 5 4 3 6 7 10 12 12 11 13 12 9 12 13 13
3 3 3 5 4 3 1 3 2 3 2 1 4 2 2 2 2 1 0 0 1 4 3 2 2 3 4 9 9 10 11 10 8 8 10 12 12 11 12 13 14 12 13 14 13
2 2 1 3 4 2 2 3 3 1 3 3 3 2 3 3 2 4 4 3 1 3 4 3 4 4 3 4 9 13 15 14 8 7 6 8 8 10 13 12 12 10 12 13 13
Wind_Direction
328 325 340 346 318 322 327 336 341 333 337 337 344 345 347 341 310 60 36 338 308 307 297 283 248 278 216 106 331 265 235 213 142 188 88 32 346 19 330 216 100 21 352 4 143
320 326 335 327 320 324 330 333 338 332 326 327 331 329 343 338 286 44 16 331 326 307 319 345 5 304 162 146 145 262 255 86 54 68 52 3 10 359 314 151 47 5 21 121 150
314 314 312 314 320 327 324 332 330 327 324 322 321 318 325 305 232 6 1 335 327 298 314 317 293 264 200 191 78 152 325 131 71 47 358 324 81 37 343 78 355 317 302 166 162
309 299 307 308 315 318 319 322 324 326 325 319 315 311 317 234 298 0 345 322 309 300 294 297 269 201 196 169 95 153 74 29 45 41 14 16 14 76 47 7 352 354 40 166 178
301 302 309 323 327 323 327 321 324 325 328 327 311 310 258 89 31 348 327 333 308 326 22 11 33 285 155 110 133 115 118 72 51 105 24 117 45 101 35 5 11 28 36 19 81
304 316 328 336 334 328 327 326 320 314 311 311 312 299 243 79 341 347 342 8 11 8 47 39 36 29 91 69 3 108 109 89 43 68 60 116 56 273 9 358 23 37 36 26 23
315 320 325 332 332 331 328 322 303 297 306 319 331 351 62 37 353 359 21 19 7 12 72 42 31 294 144 125 88 141 174 125 25 353 77 254 87 41 1 6 37 35 40 37 27
316 318 327 338 331 322 317 313 300 303 302 296 305 118 71 17 354 22 7 64 66 62 75 30 28 81 7 122 157 198 232 217 46 356 85 252 116 36 10 10 34 36 33 33 35
315 316 322 323 317 314 313 301 287 280 256 241 248 72 71 7 23 14 18 31 66 71 67 54 69 56 167 216 188 191 232 252 143 18 330 318 101 33 17 23 28 30 34 27 21
317 317 322 329 332 322 315 256 7 182 233 188 72 120 56 25 16 15 27 19 15 281 70 37 71 101 41 248 274 103 200 185 15 26 341 98 99 61 31 28 29 24 24 27 20
337 327 334 348 352 344 235 242 203 73 45 58 67 80 43 44 16 26 360 347 25 54 83 26 78 58 53 50 58 80 85 355 89 23 312 337 179 65 41 36 29 22 16 17 15
344 331 337 342 359 348 20 50 30 16 84 69 85 78 56 32 25 17 359 68 41 90 127 114 70 60 67 52 51 40 324 57 151 356 303 229 238 175 79 55 39 20 14 9 4
352 354 337 327 299 40 75 59 330 255 105 67 50 43 24 25 38 12 2 23 40 66 61 57 73 61 41 43 359 40 16 9 329 318 232 267 246 190 166 108 41 25 10 7 3
360 8 4 176 136 57 63 349 331 265 188 51 44 43 5 5 63 25 5 348 60 67 73 65 68 42 60 68 343 246 15 301 287 295 284 230 277 183 166 186 45 12 5 358 356
356 0 24 30 121 90 33 331 293 237 256 28 61 56 56 63 322 27 16 59 62 61 254 82 57 21 43 16 335 32 318 285 281 269 281 234 251 162 164 183 4 3 358 355 349
26 20 256 78 62 33 319 277 236 231 76 68 52 20 40 43 52 33 35 62 18 71 72 85 79 40 6 334 330 322 278 243 259 258 240 254 217 254 73 358 337 347 345 347 346
33 44 52 16 54 336 292 226 199 50 259 47 21 48 53 28 55 22 36 49 37 271 80 137 64 82 7 304 173 337 300 262 218 200 263 57 251 35 80 12 352 344 342 339 343
47 21 46 46 347 315 238 207 71 355 39 98 235 78 28 360 61 24 16 67 36 354 341 334 159 16 8 27 328 330 324 331 288 305 320 160 245 103 90 3 345 339 341 339 339
228 61 52 8 344 288 246 58 120 147 316 275 209 265 113 94 333 338 46 40 22 14 358 330 108 111 41 28 340 15 29 5 290 243 250 247 135 166 338 346 341 338 333 336 337
34 75 43 333 335 265 72 105 114 230 293 246 288 319 319 19 299 347 20 16 16 13 338 59 209 55 101 241 47 349 348 229 195 270 271 234 244 204 354 338 338 334 340 334 329
7 154 27 338 269 73 83 85 129 83 252 321 55 163 18 2 352 21 32 123 354 342 322 331 281 105 195 44 28 36 19 306 279 279 285 288 68 55 324 325 322 324 339 336 320
106 94 21 303 86 49 83 106 77 114 113 85 55 56 7 59 24 31 13 19 5 329 27 47 316 55 99 112 215 350 5 295 287 278 281 293 291 297 337 324 331 329 341 325 326
66 55 94 281 98 96 125 114 62 161 58 127 112 9 135 100 257 346 22 82 5 355 9 103 193 232 172 188 191 259 315 308 282 254 262 286 236 353 338 347 332 314 339 335 337
179 70 57 66 33 120 134 123 126 70 91 78 113 152 184 158 61 80 140 116 53 69 38 276 331 298 319 43 89 215 306 327 330 267 314 276 305 318 354 328 333 340 342 331 333
25 73 8 122 82 112 136 136 145 144 107 255 168 248 240 216 195 100 88 175 165 126 200 266 252 247 279 232 222 233 259 284 321 285 296 327 309 330 331 320 327 326 331 336 346
131 157 150 103 127 146 124 109 149 129 303 160 278 134 218 265 294 218 112 74 28 173 210 180 195 192 247 224 246 256 243 253 263 272 265 287 294 10 329 333 336 331 339 337 338
119 124 252 158 150 214 78 115 120 149 106 14 321 228 206 108 74 55 51 79 343 280 201 215 160 197 251 254 272 257 237 224 231 251 275 283 331 319 329 336 326 335 328 330 329